When you browse on this site, cookies collect data to enhance your experience and personalize the content and advertising you see.
Visit our Privacy Policy to learn more. By continuing to use the site, you agree to this use of cookies and data.
  • în România
  • Lista ţărilor
  • Pe 7 zile
  • Temperatura apei
  • Hartă satelitară
  • Meteo pe hartă
  • Widget-uri
  • user-avatar
    Intrare

    Meteo pe oră la Aleksandrów Łódzki

    Astăzi, 24 Mai, Vineri

    Timp Temperatura Precipitaţii Vânt Presiune Umiditate
    00:00 +10°C° 0 mm 2 m/s 744 mmHg 91%
    01:00 +9°C° 0 mm 2 m/s 744 mmHg 93%
    02:00 +9°C° 0 mm 2 m/s 744 mmHg 93%
    03:00 +9°C° 0 mm 2 m/s 744 mmHg 93%
    04:00 +9°C° 0 mm 2 m/s 744 mmHg 92%
    05:00 +10°C° 0 mm 2 m/s 744 mmHg 87%
    06:00 +12°C° 0 mm 2 m/s 744 mmHg 81%
    07:00 +14°C° 0 mm 2 m/s 745 mmHg 76%
    08:00 +15°C° 0 mm 2 m/s 744 mmHg 72%
    09:00 +16°C° 0 mm 2 m/s 744 mmHg 69%
    10:00 +17°C° 0 mm 2 m/s 744 mmHg 65%
    11:00 +17°C° 0 mm 2 m/s 744 mmHg 63%
    12:00 +18°C° 0 mm 2 m/s 744 mmHg 62%
    13:00 +18°C° 0 mm 2 m/s 744 mmHg 61%
    14:00 +19°C° 0 mm 2 m/s 743 mmHg 59%
    15:00 +19°C° 0 mm 2 m/s 743 mmHg 57%
    16:00 +19°C° 0 mm 2 m/s 743 mmHg 56%
    17:00 +18°C° 0 mm 2 m/s 743 mmHg 60%
    18:00 +18°C° 0 mm 1 m/s 742 mmHg 63%
    19:00 +16°C° 0 mm 1 m/s 742 mmHg 67%
    20:00 +15°C° 0 mm 1 m/s 742 mmHg 69%
    21:00 +14°C° 0 mm 1 m/s 742 mmHg 71%
    22:00 +13°C° 0 mm 1 m/s 742 mmHg 72%
    23:00 +12°C° 0 mm 1 m/s 742 mmHg 73%

    Mâine, 25 Mai, Sâmbătă

    Timp Temperatura Precipitaţii Vânt Presiune Umiditate
    00:00 +12°C° 0 mm 2 m/s 742 mmHg 73%
    01:00 +10°C° 0 mm 2 m/s 742 mmHg 74%
    02:00 +10°C° 0 mm 2 m/s 742 mmHg 74%
    03:00 +10°C° 0 mm 2 m/s 742 mmHg 75%
    04:00 +9°C° 0 mm 2 m/s 741 mmHg 75%
    05:00 +11°C° 0 mm 3 m/s 742 mmHg 73%
    06:00 +13°C° 0 mm 3 m/s 742 mmHg 71%
    07:00 +14°C° 0 mm 3 m/s 742 mmHg 69%
    08:00 +17°C° 0 mm 4 m/s 742 mmHg 67%
    09:00 +18°C° 0 mm 4 m/s 742 mmHg 66%
    10:00 +20°C° 0 mm 5 m/s 742 mmHg 64%
    11:00 +20°C° 0.3 mm 5 m/s 742 mmHg 62%
    12:00 +21°C° 0.3 mm 5 m/s 742 mmHg 61%
    13:00 +21°C° 0.3 mm 5 m/s 742 mmHg 59%
    14:00 +21°C° 0 mm 5 m/s 742 mmHg 58%
    15:00 +20°C° 0 mm 5 m/s 741 mmHg 57%
    16:00 +20°C° 0 mm 5 m/s 741 mmHg 57%
    17:00 +19°C° 0 mm 4 m/s 741 mmHg 62%
    18:00 +18°C° 0 mm 3 m/s 741 mmHg 68%
    19:00 +16°C° 0 mm 3 m/s 741 mmHg 74%
    20:00 +15°C° 0 mm 2 m/s 742 mmHg 76%
    21:00 +14°C° 0 mm 2 m/s 742 mmHg 79%
    22:00 +13°C° 0 mm 1 m/s 742 mmHg 82%
    23:00 +13°C° 0 mm 2 m/s 742 mmHg 84%

    Poimâine, 26 Mai, Duminică

    Timp Temperatura Precipitaţii Vânt Presiune Umiditate
    00:00 +12°C° 0 mm 2 m/s 742 mmHg 85%
    01:00 +12°C° 0 mm 2 m/s 742 mmHg 87%
    02:00 +10°C° 0 mm 2 m/s 742 mmHg 87%
    03:00 +11°C° 0 mm 1 m/s 742 mmHg 88%
    04:00 +10°C° 0 mm 1 m/s 742 mmHg 89%
    05:00 +12°C° 0 mm 1 m/s 742 mmHg 82%
    06:00 +14°C° 0 mm 2 m/s 742 mmHg 75%
    07:00 +16°C° 0 mm 2 m/s 742 mmHg 68%
    08:00 +17°C° 0 mm 3 m/s 742 mmHg 65%
    09:00 +18°C° 0 mm 4 m/s 742 mmHg 62%
    10:00 +19°C° 0 mm 5 m/s 742 mmHg 59%
    11:00 +19°C° 0 mm 6 m/s 742 mmHg 58%
    12:00 +20°C° 0 mm 6 m/s 741 mmHg 57%
    13:00 +20°C° 0 mm 7 m/s 741 mmHg 56%
    14:00 +20°C° 0 mm 6 m/s 741 mmHg 56%
    15:00 +20°C° 0 mm 6 m/s 741 mmHg 57%
    16:00 +20°C° 0 mm 6 m/s 741 mmHg 57%
    17:00 +19°C° 0 mm 5 m/s 741 mmHg 62%
    18:00 +17°C° 0 mm 3 m/s 741 mmHg 66%
    19:00 +16°C° 0 mm 2 m/s 741 mmHg 71%
    20:00 +16°C° 0 mm 2 m/s 741 mmHg 72%
    21:00 +15°C° 0 mm 2 m/s 741 mmHg 74%
    22:00 +14°C° 0 mm 2 m/s 742 mmHg 75%
    23:00 +13°C° 0 mm 2 m/s 741 mmHg 78%

    27 Mai, Luni

    Timp Temperatura Precipitaţii Vânt Presiune Umiditate
    00:00 +12°C° 0 mm 3 m/s 741 mmHg 80%
    01:00 +12°C° 0 mm 3 m/s 741 mmHg 82%
    02:00 +12°C° 0 mm 3 m/s 741 mmHg 83%
    03:00 +12°C° 0 mm 3 m/s 741 mmHg 84%
    04:00 +11°C° 0 mm 3 m/s 740 mmHg 85%
    05:00 +13°C° 0 mm 4 m/s 740 mmHg 81%
    06:00 +15°C° 0 mm 4 m/s 740 mmHg 77%
    07:00 +17°C° 0 mm 5 m/s 740 mmHg 73%
    08:00 +19°C° 0 mm 5 m/s 740 mmHg 67%
    09:00 +21°C° 0 mm 6 m/s 740 mmHg 61%
    10:00 +23°C° 0 mm 6 m/s 740 mmHg 55%
    11:00 +23°C° 0 mm 6 m/s 739 mmHg 53%
    12:00 +24°C° 0 mm 6 m/s 739 mmHg 51%
    13:00 +24°C° 0 mm 6 m/s 739 mmHg 49%
    14:00 +24°C° 0 mm 6 m/s 739 mmHg 51%
    15:00 +25°C° 0 mm 5 m/s 739 mmHg 52%
    16:00 +25°C° 0 mm 5 m/s 739 mmHg 53%
    17:00 +22°C° 0.2 mm 4 m/s 739 mmHg 62%
    18:00 +21°C° 0.2 mm 3 m/s 739 mmHg 70%
    19:00 +19°C° 0.2 mm 2 m/s 739 mmHg 78%
    20:00 +18°C° 0 mm 2 m/s 739 mmHg 82%
    21:00 +17°C° 0 mm 2 m/s 739 mmHg 86%
    22:00 +16°C° 0 mm 1 m/s 740 mmHg 89%
    23:00 +15°C° 0 mm 1 m/s 739 mmHg 91%

    28 Mai, Marţi

    Timp Temperatura Precipitaţii Vânt Presiune Umiditate
    00:00 +15°C° 0 mm 1 m/s 739 mmHg 92%
    01:00 +14°C° 0 mm 1 m/s 739 mmHg 93%
    02:00 +14°C° 0.1 mm 1 m/s 739 mmHg 93%
    03:00 +14°C° 0.1 mm 2 m/s 739 mmHg 93%
    04:00 +14°C° 0.1 mm 2 m/s 739 mmHg 93%
    05:00 +14°C° 0.9 mm 2 m/s 739 mmHg 93%
    06:00 +15°C° 0.9 mm 2 m/s 738 mmHg 93%
    07:00 +15°C° 0.9 mm 2 m/s 738 mmHg 93%
    08:00 +15°C° 1.2 mm 2 m/s 738 mmHg 93%
    09:00 +14°C° 1.2 mm 3 m/s 738 mmHg 94%
    10:00 +14°C° 1.2 mm 3 m/s 738 mmHg 95%
    11:00 +16°C° 0.1 mm 3 m/s 738 mmHg 92%
    12:00 +17°C° 0.1 mm 3 m/s 737 mmHg 89%
    13:00 +18°C° 0.1 mm 4 m/s 737 mmHg 86%
    14:00 +19°C° 0 mm 4 m/s 737 mmHg 84%
    15:00 +19°C° 0 mm 3 m/s 737 mmHg 82%
    16:00 +20°C° 0 mm 3 m/s 737 mmHg 80%
    17:00 +19°C° 1.2 mm 3 m/s 737 mmHg 83%
    18:00 +18°C° 1.2 mm 3 m/s 737 mmHg 86%
    19:00 +18°C° 1.2 mm 4 m/s 737 mmHg 89%
    20:00 +17°C° 0.7 mm 3 m/s 737 mmHg 91%
    21:00 +17°C° 0.7 mm 2 m/s 737 mmHg 92%
    22:00 +16°C° 0.7 mm 1 m/s 737 mmHg 94%
    23:00 +16°C° 0.7 mm 1 m/s 737 mmHg 94%

    29 Mai, Miercuri

    Timp Temperatura Precipitaţii Vânt Presiune Umiditate
    00:00 +16°C° 0.7 mm 1 m/s 737 mmHg 95%
    01:00 +16°C° 0.7 mm 1 m/s 737 mmHg 95%
    02:00 +16°C° 0.9 mm 1 m/s 737 mmHg 96%
    03:00 +15°C° 0.9 mm 1 m/s 737 mmHg 96%
    04:00 +15°C° 0.9 mm 1 m/s 737 mmHg 96%
    05:00 +16°C° 0.4 mm 1 m/s 738 mmHg 95%
    06:00 +16°C° 0.4 mm 1 m/s 738 mmHg 93%
    07:00 +17°C° 0.4 mm 2 m/s 738 mmHg 91%
    08:00 +17°C° 0.2 mm 2 m/s 739 mmHg 91%
    09:00 +16°C° 0.2 mm 3 m/s 739 mmHg 91%
    10:00 +15°C° 0.2 mm 4 m/s 739 mmHg 90%
    11:00 +15°C° 0.1 mm 4 m/s 740 mmHg 89%
    12:00 +17°C° 0.1 mm 4 m/s 740 mmHg 87%
    13:00 +17°C° 0.1 mm 4 m/s 740 mmHg 86%
    14:00 +17°C° 0 mm 4 m/s 740 mmHg 85%
    15:00 +17°C° 0 mm 4 m/s 740 mmHg 83%
    16:00 +17°C° 0 mm 4 m/s 741 mmHg 82%
    17:00 +16°C° 0.1 mm 3 m/s 741 mmHg 84%
    18:00 +16°C° 0.1 mm 3 m/s 741 mmHg 85%
    19:00 +14°C° 0.1 mm 3 m/s 741 mmHg 87%
    20:00 +14°C° 0.4 mm 3 m/s 742 mmHg 88%
    21:00 +13°C° 0.4 mm 4 m/s 743 mmHg 90%
    22:00 +12°C° 0.4 mm 4 m/s 743 mmHg 91%
    23:00 +12°C° 0.5 mm 4 m/s 744 mmHg 91%
    Arată mai mult